SCP
0 0 0 0 0 0 0 0 0 0 0 0 0 0 0 0 0 0 0 0 0 0 0 0 0 -0 -0 -0 -0 -0 -0 -0 -0 -0 -0 -0 0 0 0 0 0 0 0 0 0 0 0 0 0
0 0 0 0 0 0 0 0 0 0 0 0 0 0 0 0 0 0 0 0 0 0 0 0 0 0 0 0 0 0 0 0 0 0 0 0 0 0 0 0 0 0 0 0 0 0 0 0 0
0 0 0 0 0 0 0 0 0 0 0 0 0 0 0 0 0 0 0 0 0 0 0 0 0 0 0 0 0 0 0 0 0 0 0 0 0 0 0 0 0 0 0 0 0 0 0 0 0
0 0 0 0 0 0 0 0 0 0 0 0 0 0 0 0 0 0 0 0 0 0 0 0 0 0 0 0 0 0 0 0 0 0 0 0 0 0 0 0 0 0 0 0 0 0 0 0 0
0 0 0 0 0 0 0 0 0 0 0 0 0 0 0 0 0 0 0 0 0 0 0 0 0 0 0 0 0 0 0 0 0 0 0 0 0 0 0 0 0 0 0 0 0 0 0 0 0
0 0 0 0 0 0 0 0 0 0 0 0 0 0 0 0 0 0 0 0 0 0 0 0 0 0 0 0 0 0 0 0 0 0 0 0 0 0 0 0 0 0 0 0 0 0 0 0 0
0 0 0 0 0 0 0 0 0 0 0 0 0 0 0 0 0 0 0 0 0 0 0 0 0 0 0 0 0 0 0 0 0 0 0 0 0 0 0 0 0 0 0 0 0 0 0 0 0
0 0 0 0 0 0 0 0 0 0 0 0 0 0 0 0 0 0 0 0 0 0 0 0 0 0 0 0 0 0 0 0 0 0 0 0 0 0 0 0 0 0 0 0 0 0 0 0 0
0 0 0 0 0 0 0 0 0 0 0 0 0 0 0 0 0 0 0 0 0 0 0 0 0 0 0 0 0 0 0 0 0 0 0 0 0 0 0 0 0 0 0 0 0 0 0 0 0
0 0 0 0 0 0 0 0 0 0 0 0 0 0 0 0 0 0 0 0 0 0 0 0 0 0 0 0 0 0 0 0 0 0 0 0 0 0 0 0 0 0 0 0 0 0 0 0 0
0 0 0 0 0 0 0 0 0 0 0 0 0 0 0 0 0 0 0 0 0 0 0 0 0 0 0 0 0 0 0 0 0 0 0 0 0 0 0 0 0 0 0 0 0 0 0 0 0
0 0 0 0 0 0 0 0 0 0 0 0 0 0 0 0 0 0 0 0 0 0 0 0 0 0 0 0 0 0 0 0 0 0 0 0 0 0 0 0 0 0 0 0 0 0 0 0 0
0 0 0 0 0 0 0 0 0 0 0 0 0 0 0 0 0 0 0 0 0 0 0 0 0 0 0 0 0 0 0 0 0 0 0 0 0 0 0 0 0 0 0 0 0 0 0 0 0
0 0 0 0 0 0 0 0 0 0 0 0 0 0 0 0 0 0 0 0 0 0 0 0 0 0 0 0 0 0 0 0 0 0 0 0 0 0 0 0 0 0 0 0 0 0 0 0 0
0 0 0 0 0 0 0 0 0 0 0 0 0 0 0 0 0 0 0 0 0 0 0 0 0 0 0 0 0 0 0 0 0 0 0 0 0 0 0 0 0 0 0 0 0 0 0 0 0
0 0 0 0 0 0 0 0 0 0 0 0 0 0 0 0 0 0 0 0 0 0 0 0 0 0 0 0 0 0 0 0 0 0 0 0 0 0 0 0 0 0 0 0 0 0 0 0 0
0 0 0 0 0 0 0 0 0 0 0 0 0 0 0 0 0 0 0 0 0 0 0 0 0 0 0 0 0 0 0 0 0 0 0 0 0 0 0 0 0 0 0 0 0 0 0 0 0
0 0 0 0 0 0 0 0 0 0 0 0 0 0 0 0 0 0 0 0 0 0 0 0 0 0 0 0 0 0 0 0 0 0 0 0 0 0 0 0 0 0 0 0 0 0 0 0 0
0 0 0 0 0 0 0 0 0 0 0 0 0 0 0 0 0 0 0 0 0 0 0 0 0 0 0 0 0 0 0 0 0 0 0 0 0 0 0 0 0 0 0 0 0 0 0 0 0
0 0 0 0 0 0 0 0 0 0 0 0 0 0 0 0 0 0 0 0 0 0 0 0 0 0 0 0 0 0 0 0 0 0 0 0 0 0 0 0 0 0 0 0 0 0 0 0 0
0 0 0 0 0 0 0 0 0 0 0 0 0 0 0 0 0 0 0 0 0 0 0 0 0 0 0 0 0 0 0 0 0 0 0 0 0 0 0 0 0 0 0 0 0 0 0 0 0
0 0 0 0 0 0 0 0 0 0 0 0 0 0 0 0 0 0 0 0 0 0 0 0 0 0 0 0 0 0 0 0 0 0 0 0 0 0 0 0 0 0 0 0 0 0 0 0 0
0 0 0 0 0 0 0 0 0 0 0 0 0 0 0 0 0 0 0 0 0 0 0 0 0 0 0 0 0 0 0 0 0 0 0 0 0 0 0 0 0 0 0 0 0 0 0 0 0
0 0 0 0 0 0 0 0 0 0 0 0 0 0 0 0 0 0 0 0 -0 0 0 0 0 0 0 0 0 0 0 0 0 0 0 0 0 0 0 0 0 0 0 0 0 0 0 0 0
0 0 0 0 0 0 0 0 0 0 0 0 0 0 0 0 0 0 0 0 -0 0 0 0 0 0 0 0 0 0 0 0 0 0 0 0 0 0 0 0 0 0 0 0 0 0 0 0 0
0 0 0 0 0 0 0 0 0 0 0 0 0 0 0 0 0 0 0 0 0 0 0 0 0 0 0 0 0 0 0 0 0 0 0 0 0 0 0 0 0 0 0 0 0 0 0 0 0
0 0 0 0 0 0 0 0 0 0 0 0 0 0 0 0 0 0 0 0 0 0 0 0 0 0 0 0 0 0 0 0 0 0 0 0 0 0 0 0 0 0 0 0 0 0 0 0 0
0 0 0 0 0 0 0 0 0 0 0 0 0 0 0 -0 0 0 0 0 0 0 0 0 0 0 0 0 0 0 0 0 0 0 0 0 0 0 0 0 0 0 0 0 0 0 0 0 0
0 0 0 0 0 0 0 0 0 0 0 0 0 0 -0 -0 0 0 0 0 0 0 0 0 0 0 0 0 0 0 0 0 0 0 0 0 0 0 0 0 0 0 0 0 0 0 0 0 0
0 0 0 0 0 0 0 0 0 0 0 0 0 0 0 0 0 0 0 0 0 0 0 0 0 0 0 0 0 0 0 0 0 0 0 0 0 0 0 0 0 0 0 0 0 0 0 0 0
Wind_Speed_500mb
14 10 7 7 5 7 15 18 7 11 5 15 14 20 22 32 10 14 32 27 25 17 19 20 19 18 16 15 10 5 4 6 8 9 11 14 14 15 14 15 15 15 15 14 15 16 16 17 19
17 11 9 11 7 11 13 18 13 11 26 19 14 5 15 10 15 38 36 30 28 18 19 19 18 15 14 13 12 9 3 4 7 11 13 15 16 18 21 22 21 20 20 19 16 20 20 22 22
15 18 8 5 8 17 5 13 22 23 21 11 10 16 14 12 25 25 29 32 25 20 16 13 12 10 9 7 6 5 4 4 5 9 11 13 17 20 23 25 26 26 24 23 22 24 24 25 26
9 3 10 7 17 10 10 17 29 17 10 1 16 16 17 17 15 29 38 31 25 19 14 9 6 7 9 9 8 8 8 9 11 13 15 15 16 18 25 27 30 30 28 29 27 28 27 29 29
11 12 8 11 24 13 12 22 14 15 23 17 3 13 14 16 27 37 34 23 20 15 9 4 4 7 10 12 14 15 17 17 17 16 18 21 23 24 24 25 30 32 35 34 33 31 33 34 35
8 8 8 14 20 15 14 10 8 8 14 13 4 20 13 22 30 32 30 21 16 13 7 3 4 9 11 13 16 18 19 19 21 24 25 26 27 28 31 32 31 34 37 38 38 39 38 39 40
6 6 14 17 9 13 11 14 11 11 15 12 6 13 21 30 32 30 27 26 17 9 6 8 10 10 11 12 14 16 21 26 28 29 29 29 31 31 33 35 38 40 39 41 43 44 45 45 45
6 5 12 6 10 8 15 17 7 9 10 17 14 2 15 40 37 35 31 22 18 13 14 13 13 12 12 13 13 16 18 21 26 30 33 36 37 38 37 37 37 42 45 48 47 49 51 53 53
3 5 8 8 5 10 8 9 4 4 7 8 9 4 15 46 41 35 29 23 21 18 18 15 12 11 11 17 18 22 23 26 29 32 36 39 41 42 42 43 43 43 46 50 53 54 53 58 61
3 4 10 14 15 12 14 8 16 2 12 11 11 9 25 42 35 33 27 19 16 16 19 16 13 13 15 20 21 22 23 27 34 40 43 44 44 44 46 47 46 48 47 49 52 56 59 60 63
2 4 10 19 20 19 9 6 0 5 11 23 26 30 32 33 30 28 21 18 17 16 26 21 18 19 20 21 23 23 27 32 39 44 49 47 44 42 44 46 49 51 50 52 52 53 57 62 63
4 6 8 9 9 8 3 11 7 20 9 4 1 15 33 35 33 31 28 24 29 31 32 27 21 22 23 22 24 26 30 36 43 48 53 53 52 51 49 48 48 51 53 54 55 55 55 59 63
5 5 4 3 3 5 11 15 14 30 27 26 15 21 29 29 32 28 28 27 26 32 31 30 26 25 27 27 27 29 35 41 48 53 56 54 54 55 55 53 53 53 53 55 57 58 59 60 61
4 1 3 1 0 4 8 11 5 8 16 32 24 24 27 31 31 30 28 30 31 34 33 38 30 29 30 31 31 34 40 47 52 57 56 53 55 56 57 57 55 54 55 56 58 60 62 64 64
5 4 7 9 3 3 9 13 19 32 15 15 29 32 28 32 31 34 27 22 27 31 38 41 33 32 32 32 34 38 44 49 54 57 54 53 56 59 62 62 60 58 57 57 59 61 62 64 65
4 2 3 4 1 3 6 13 8 9 13 20 23 29 37 35 35 36 25 25 24 34 45 38 33 32 32 34 38 42 47 52 57 58 56 55 58 59 62 65 65 61 59 60 59 59 61 61 60
9 2 6 7 4 5 5 13 5 3 12 21 25 26 30 35 36 36 33 31 27 37 43 37 32 30 33 38 42 46 49 56 61 60 59 59 61 62 63 66 67 64 62 61 62 61 58 61 61
4 5 2 8 5 3 13 30 33 50 43 44 35 33 32 35 40 39 37 29 31 40 37 34 31 34 39 42 46 49 53 58 62 61 61 62 63 62 63 68 70 65 60 57 65 61 55 53 56
8 7 10 9 6 4 14 24 35 40 34 32 36 40 40 32 20 28 33 36 37 38 32 29 32 37 42 46 50 54 59 63 66 62 62 62 61 60 66 72 71 65 59 60 68 62 60 58 47
7 2 8 11 7 4 16 31 46 34 24 12 2 4 6 9 22 24 19 22 24 24 26 30 35 40 44 49 53 56 62 69 69 66 67 65 65 70 73 70 68 69 68 60 48 43 47 56 49
5 2 7 7 18 11 15 16 6 5 14 13 8 18 15 15 14 12 11 10 15 22 27 34 39 45 48 52 56 59 64 68 66 65 64 64 70 74 73 71 67 59 57 60 53 57 52 56 49
2 12 7 8 10 5 7 10 15 10 12 10 16 15 21 21 16 10 4 10 19 26 33 42 48 51 53 54 57 60 65 67 68 68 70 72 73 74 69 66 57 51 53 52 49 49 50 49 56
4 7 5 4 2 8 2 4 13 8 11 13 21 23 26 19 14 10 3 9 20 29 38 47 53 53 53 53 52 58 61 65 67 70 76 77 75 71 64 53 46 47 48 50 51 52 54 54 56
2 4 6 1 2 3 4 5 11 3 5 14 22 27 26 24 20 12 1 21 37 34 36 40 42 43 44 46 50 53 59 62 67 73 75 76 72 64 53 48 44 44 45 46 46 46 49 52 54
5 3 4 3 2 8 5 2 18 7 6 15 19 28 28 22 17 8 21 38 53 42 37 35 41 43 42 44 48 52 55 61 67 69 70 67 60 52 45 39 40 44 45 45 45 49 53 54 54
2 3 4 7 6 6 5 10 10 2 8 6 16 31 23 17 22 35 45 48 65 51 41 38 35 37 39 43 48 48 55 61 62 64 59 59 56 51 44 40 36 39 42 44 45 50 53 53 56
4 1 3 2 2 4 8 12 13 6 7 8 17 17 15 11 24 38 39 57 51 43 39 33 33 35 40 44 45 49 58 60 61 58 55 53 48 46 43 41 40 42 42 44 48 51 53 55 57
1 3 4 3 4 9 9 7 11 6 7 6 15 23 18 32 38 37 37 37 39 38 33 30 32 36 41 43 45 54 58 57 53 49 50 49 48 44 43 43 44 42 44 45 48 50 53 55 57
3 3 3 2 5 8 5 10 8 14 12 17 22 25 15 46 42 39 34 32 33 30 27 27 33 39 42 42 46 55 56 54 48 44 46 45 42 45 43 43 47 45 44 45 49 52 53 53 56
4 5 10 7 10 7 3 13 6 11 13 14 21 20 47 48 49 42 30 28 27 26 27 29 35 39 39 38 46 52 52 49 44 42 39 36 40 40 39 41 44 43 44 42 44 49 50 54 56
Wind_Direction_500mb
217 175 139 209 233 217 248 232 86 83 62 42 42 40 101 44 25 127 141 134 130 136 119 110 103 101 107 108 116 147 205 227 237 250 260 260 257 256 261 261 258 256 248 248 262 269 262 263 258
195 173 150 247 249 225 237 224 129 88 93 90 72 2 46 85 76 132 138 144 134 153 121 114 104 97 91 86 80 79 89 251 264 264 267 269 267 266 266 262 259 260 255 253 258 263 261 263 257
170 148 237 209 215 256 6 43 97 82 110 149 109 45 61 94 111 128 158 144 149 148 128 114 100 88 75 57 41 30 15 344 301 298 293 279 270 269 266 266 268 265 256 249 251 249 249 253 256
97 234 266 267 239 211 55 72 96 103 128 332 100 84 90 90 147 164 145 151 158 153 136 117 74 34 14 3 346 332 314 305 299 297 298 298 291 282 275 273 269 268 263 256 251 253 248 247 249
144 242 249 214 265 115 54 75 126 158 152 150 264 131 96 109 154 151 146 155 165 163 141 109 26 1 349 343 339 333 322 316 309 303 296 296 294 291 287 281 275 271 263 258 258 253 246 247 247
246 279 250 228 231 90 91 122 173 162 132 93 154 105 108 168 150 151 144 153 184 176 182 218 317 325 331 335 337 332 334 336 328 324 319 310 301 292 287 285 280 274 270 265 259 258 255 249 247
263 227 260 288 100 129 127 152 217 190 152 139 73 118 139 159 168 159 159 169 184 198 238 282 294 296 296 302 310 326 334 337 336 332 328 321 313 304 295 288 280 276 274 269 262 258 259 256 250
306 324 264 245 290 93 98 159 4 358 106 144 148 175 164 176 186 172 183 179 201 217 243 258 274 289 300 297 303 312 321 325 329 329 330 327 321 313 306 298 291 280 274 269 266 260 256 256 257
312 289 276 293 183 81 113 174 146 271 109 151 145 61 104 172 190 185 187 193 216 229 249 262 279 293 304 308 319 320 322 325 327 327 327 324 320 316 307 301 294 288 282 276 270 265 261 256 254
254 265 10 11 15 36 107 314 149 217 202 179 175 192 144 179 194 187 193 208 244 258 259 257 272 292 304 309 312 314 320 327 331 331 329 325 320 315 311 305 298 289 283 278 275 270 265 260 257
30 305 351 44 29 14 65 311 158 275 264 209 202 197 172 191 194 192 203 206 248 239 246 266 278 288 297 303 310 319 325 329 330 331 332 330 326 317 308 302 299 295 288 282 276 270 267 262 260
255 46 1 26 21 7 11 339 289 232 250 313 65 179 195 200 201 201 202 210 221 222 247 262 267 284 300 305 311 313 319 324 327 332 333 332 331 329 321 311 301 293 290 286 279 274 268 265 260
280 94 46 61 25 329 317 275 265 279 250 258 240 202 201 202 203 212 215 212 233 244 243 260 269 285 297 298 302 310 318 323 329 332 333 330 329 328 324 317 309 302 293 286 282 278 273 267 261
54 88 97 144 18 286 318 284 344 238 242 233 222 221 195 206 206 210 217 221 223 235 244 254 265 279 288 290 300 311 318 323 328 329 328 326 326 327 326 321 312 304 297 290 283 278 274 271 266
137 240 185 195 74 3 330 263 232 244 239 235 231 230 224 218 214 215 214 238 246 245 245 255 258 272 281 288 300 310 319 324 325 324 323 323 324 323 323 320 314 308 301 292 285 280 276 273 269
253 203 271 89 348 89 354 274 138 147 207 240 249 239 230 228 226 220 231 245 244 235 244 259 257 270 280 291 301 310 317 319 322 320 319 319 319 318 316 316 313 307 299 294 289 283 280 276 273
32 256 296 151 54 333 187 274 207 235 233 245 249 241 233 233 229 228 248 257 243 233 245 256 264 275 285 292 302 309 314 317 320 318 318 317 315 314 312 312 310 305 297 290 288 283 278 277 274
335 313 271 259 133 249 260 260 271 273 248 243 237 243 246 235 228 242 245 255 250 243 246 251 268 278 285 295 302 308 310 315 317 315 314 314 313 310 308 309 308 303 294 289 284 281 275 279 280
343 333 300 311 108 336 262 282 283 277 274 269 238 235 237 237 222 213 237 261 241 242 248 258 267 277 287 294 300 303 309 313 314 312 311 310 307 307 307 306 302 298 288 277 279 280 267 266 272
309 60 287 292 76 309 290 290 275 282 261 272 351 113 136 199 237 242 228 226 232 244 256 264 272 280 286 291 298 303 309 311 312 311 311 314 312 307 303 298 291 286 283 277 277 279 281 274 257
266 223 336 316 339 260 300 283 232 81 113 105 99 102 136 168 171 185 198 232 258 265 269 275 281 283 287 291 296 302 305 306 308 309 307 304 303 302 301 295 289 284 278 275 271 269 270 273 274
320 14 27 7 17 288 46 282 314 157 166 158 161 163 147 151 161 174 232 287 293 290 284 282 281 285 288 292 297 301 305 307 309 308 306 305 303 302 299 294 289 280 277 278 275 272 271 271 271
54 4 12 66 320 21 164 68 263 132 156 162 162 165 145 152 154 149 122 331 302 284 274 274 280 286 288 291 295 301 304 306 307 306 306 306 304 301 297 291 282 278 276 273 272 270 267 265 264
55 340 230 105 176 340 240 124 285 89 121 134 144 152 156 154 149 146 241 347 340 318 296 289 288 290 293 295 301 302 304 306 306 306 304 303 302 300 294 287 279 276 275 276 276 273 269 268 268
20 3 313 323 342 232 266 287 247 284 51 151 161 153 157 161 181 259 314 321 331 321 304 292 285 290 295 297 299 304 307 307 305 305 302 303 306 306 304 299 289 282 278 273 271 271 270 264 262
149 82 144 250 322 293 323 240 254 15 39 64 107 145 163 216 268 301 307 308 316 315 306 299 292 292 295 301 306 306 309 310 307 305 301 302 304 304 304 302 301 299 291 286 278 273 271 274 264
172 210 18 60 64 38 232 280 303 24 346 210 157 167 205 243 305 305 292 302 305 308 306 299 295 297 302 305 305 312 316 313 307 302 302 304 304 305 306 304 300 296 292 288 285 279 272 268 268
155 11 46 318 317 278 280 260 237 267 267 254 191 204 181 333 319 309 297 296 307 306 303 297 296 302 308 310 312 317 317 313 309 307 307 305 304 304 303 304 299 298 294 293 290 286 282 276 270
118 249 263 47 183 214 292 266 225 196 203 207 203 194 270 317 323 318 305 305 309 306 298 298 301 307 311 311 314 318 320 318 313 307 306 303 307 305 307 304 299 295 294 293 291 286 284 277 274
325 250 179 154 261 246 177 268 222 216 190 196 210 251 314 323 321 313 303 307 312 306 300 297 302 310 310 313 319 323 321 317 315 309 308 311 307 305 306 304 304 303 298 293 290 288 281 281 277
Wind_Speed_850mb
14 10 7 7 5 7 15 18 7 11 5 15 14 20 22 32 10 14 32 27 25 17 19 20 19 18 16 15 10 5 4 6 8 9 11 14 14 15 14 15 15 15 15 14 15 16 16 17 19
17 11 9 11 7 11 13 18 13 11 26 19 14 5 15 10 15 38 36 30 28 18 19 19 18 15 14 13 12 9 3 4 7 11 13 15 16 18 21 22 21 20 20 19 16 20 20 22 22
15 18 8 5 8 17 5 13 22 23 21 11 10 16 14 12 25 25 29 32 25 20 16 13 12 10 9 7 6 5 4 4 5 9 11 13 17 20 23 25 26 26 24 23 22 24 24 25 26
9 3 10 7 17 10 10 17 29 17 10 1 16 16 17 17 15 29 38 31 25 19 14 9 6 7 9 9 8 8 8 9 11 13 15 15 16 18 25 27 30 30 28 29 27 28 27 29 29
11 12 8 11 24 13 12 22 14 15 23 17 3 13 14 16 27 37 34 23 20 15 9 4 4 7 10 12 14 15 17 17 17 16 18 21 23 24 24 25 30 32 35 34 33 31 33 34 35
8 8 8 14 20 15 14 10 8 8 14 13 4 20 13 22 30 32 30 21 16 13 7 3 4 9 11 13 16 18 19 19 21 24 25 26 27 28 31 32 31 34 37 38 38 39 38 39 40
6 6 14 17 9 13 11 14 11 11 15 12 6 13 21 30 32 30 27 26 17 9 6 8 10 10 11 12 14 16 21 26 28 29 29 29 31 31 33 35 38 40 39 41 43 44 45 45 45
6 5 12 6 10 8 15 17 7 9 10 17 14 2 15 40 37 35 31 22 18 13 14 13 13 12 12 13 13 16 18 21 26 30 33 36 37 38 37 37 37 42 45 48 47 49 51 53 53
3 5 8 8 5 10 8 9 4 4 7 8 9 4 15 46 41 35 29 23 21 18 18 15 12 11 11 17 18 22 23 26 29 32 36 39 41 42 42 43 43 43 46 50 53 54 53 58 61
3 4 10 14 15 12 14 8 16 2 12 11 11 9 25 42 35 33 27 19 16 16 19 16 13 13 15 20 21 22 23 27 34 40 43 44 44 44 46 47 46 48 47 49 52 56 59 60 63
2 4 10 19 20 19 9 6 0 5 11 23 26 30 32 33 30 28 21 18 17 16 26 21 18 19 20 21 23 23 27 32 39 44 49 47 44 42 44 46 49 51 50 52 52 53 57 62 63
4 6 8 9 9 8 3 11 7 20 9 4 1 15 33 35 33 31 28 24 29 31 32 27 21 22 23 22 24 26 30 36 43 48 53 53 52 51 49 48 48 51 53 54 55 55 55 59 63
5 5 4 3 3 5 11 15 14 30 27 26 15 21 29 29 32 28 28 27 26 32 31 30 26 25 27 27 27 29 35 41 48 53 56 54 54 55 55 53 53 53 53 55 57 58 59 60 61
4 1 3 1 0 4 8 11 5 8 16 32 24 24 27 31 31 30 28 30 31 34 33 38 30 29 30 31 31 34 40 47 52 57 56 53 55 56 57 57 55 54 55 56 58 60 62 64 64
5 4 7 9 3 3 9 13 19 32 15 15 29 32 28 32 31 34 27 22 27 31 38 41 33 32 32 32 34 38 44 49 54 57 54 53 56 59 62 62 60 58 57 57 59 61 62 64 65
4 2 3 4 1 3 6 13 8 9 13 20 23 29 37 35 35 36 25 25 24 34 45 38 33 32 32 34 38 42 47 52 57 58 56 55 58 59 62 65 65 61 59 60 59 59 61 61 60
9 2 6 7 4 5 5 13 5 3 12 21 25 26 30 35 36 36 33 31 27 37 43 37 32 30 33 38 42 46 49 56 61 60 59 59 61 62 63 66 67 64 62 61 62 61 58 61 61
4 5 2 8 5 3 13 30 33 50 43 44 35 33 32 35 40 39 37 29 31 40 37 34 31 34 39 42 46 49 53 58 62 61 61 62 63 62 63 68 70 65 60 57 65 61 55 53 56
8 7 10 9 6 4 14 24 35 40 34 32 36 40 40 32 20 28 33 36 37 38 32 29 32 37 42 46 50 54 59 63 66 62 62 62 61 60 66 72 71 65 59 60 68 62 60 58 47
7 2 8 11 7 4 16 31 46 34 24 12 2 4 6 9 22 24 19 22 24 24 26 30 35 40 44 49 53 56 62 69 69 66 67 65 65 70 73 70 68 69 68 60 48 43 47 56 49
5 2 7 7 18 11 15 16 6 5 14 13 8 18 15 15 14 12 11 10 15 22 27 34 39 45 48 52 56 59 64 68 66 65 64 64 70 74 73 71 67 59 57 60 53 57 52 56 49
2 12 7 8 10 5 7 10 15 10 12 10 16 15 21 21 16 10 4 10 19 26 33 42 48 51 53 54 57 60 65 67 68 68 70 72 73 74 69 66 57 51 53 52 49 49 50 49 56
4 7 5 4 2 8 2 4 13 8 11 13 21 23 26 19 14 10 3 9 20 29 38 47 53 53 53 53 52 58 61 65 67 70 76 77 75 71 64 53 46 47 48 50 51 52 54 54 56
2 4 6 1 2 3 4 5 11 3 5 14 22 27 26 24 20 12 1 21 37 34 36 40 42 43 44 46 50 53 59 62 67 73 75 76 72 64 53 48 44 44 45 46 46 46 49 52 54
5 3 4 3 2 8 5 2 18 7 6 15 19 28 28 22 17 8 21 38 53 42 37 35 41 43 42 44 48 52 55 61 67 69 70 67 60 52 45 39 40 44 45 45 45 49 53 54 54
2 3 4 7 6 6 5 10 10 2 8 6 16 31 23 17 22 35 45 48 65 51 41 38 35 37 39 43 48 48 55 61 62 64 59 59 56 51 44 40 36 39 42 44 45 50 53 53 56
4 1 3 2 2 4 8 12 13 6 7 8 17 17 15 11 24 38 39 57 51 43 39 33 33 35 40 44 45 49 58 60 61 58 55 53 48 46 43 41 40 42 42 44 48 51 53 55 57
1 3 4 3 4 9 9 7 11 6 7 6 15 23 18 32 38 37 37 37 39 38 33 30 32 36 41 43 45 54 58 57 53 49 50 49 48 44 43 43 44 42 44 45 48 50 53 55 57
3 3 3 2 5 8 5 10 8 14 12 17 22 25 15 46 42 39 34 32 33 30 27 27 33 39 42 42 46 55 56 54 48 44 46 45 42 45 43 43 47 45 44 45 49 52 53 53 56
4 5 10 7 10 7 3 13 6 11 13 14 21 20 47 48 49 42 30 28 27 26 27 29 35 39 39 38 46 52 52 49 44 42 39 36 40 40 39 41 44 43 44 42 44 49 50 54 56
Wind_Direction_850mb
217 175 139 209 233 217 248 232 86 83 62 42 42 40 101 44 25 127 141 134 130 136 119 110 103 101 107 108 116 147 205 227 237 250 260 260 257 256 261 261 258 256 248 248 262 269 262 263 258
195 173 150 247 249 225 237 224 129 88 93 90 72 2 46 85 76 132 138 144 134 153 121 114 104 97 91 86 80 79 89 251 264 264 267 269 267 266 266 262 259 260 255 253 258 263 261 263 257
170 148 237 209 215 256 6 43 97 82 110 149 109 45 61 94 111 128 158 144 149 148 128 114 100 88 75 57 41 30 15 344 301 298 293 279 270 269 266 266 268 265 256 249 251 249 249 253 256
97 234 266 267 239 211 55 72 96 103 128 332 100 84 90 90 147 164 145 151 158 153 136 117 74 34 14 3 346 332 314 305 299 297 298 298 291 282 275 273 269 268 263 256 251 253 248 247 249
144 242 249 214 265 115 54 75 126 158 152 150 264 131 96 109 154 151 146 155 165 163 141 109 26 1 349 343 339 333 322 316 309 303 296 296 294 291 287 281 275 271 263 258 258 253 246 247 247
246 279 250 228 231 90 91 122 173 162 132 93 154 105 108 168 150 151 144 153 184 176 182 218 317 325 331 335 337 332 334 336 328 324 319 310 301 292 287 285 280 274 270 265 259 258 255 249 247
263 227 260 288 100 129 127 152 217 190 152 139 73 118 139 159 168 159 159 169 184 198 238 282 294 296 296 302 310 326 334 337 336 332 328 321 313 304 295 288 280 276 274 269 262 258 259 256 250
306 324 264 245 290 93 98 159 4 358 106 144 148 175 164 176 186 172 183 179 201 217 243 258 274 289 300 297 303 312 321 325 329 329 330 327 321 313 306 298 291 280 274 269 266 260 256 256 257
312 289 276 293 183 81 113 174 146 271 109 151 145 61 104 172 190 185 187 193 216 229 249 262 279 293 304 308 319 320 322 325 327 327 327 324 320 316 307 301 294 288 282 276 270 265 261 256 254
254 265 10 11 15 36 107 314 149 217 202 179 175 192 144 179 194 187 193 208 244 258 259 257 272 292 304 309 312 314 320 327 331 331 329 325 320 315 311 305 298 289 283 278 275 270 265 260 257
30 305 351 44 29 14 65 311 158 275 264 209 202 197 172 191 194 192 203 206 248 239 246 266 278 288 297 303 310 319 325 329 330 331 332 330 326 317 308 302 299 295 288 282 276 270 267 262 260
255 46 1 26 21 7 11 339 289 232 250 313 65 179 195 200 201 201 202 210 221 222 247 262 267 284 300 305 311 313 319 324 327 332 333 332 331 329 321 311 301 293 290 286 279 274 268 265 260
280 94 46 61 25 329 317 275 265 279 250 258 240 202 201 202 203 212 215 212 233 244 243 260 269 285 297 298 302 310 318 323 329 332 333 330 329 328 324 317 309 302 293 286 282 278 273 267 261
54 88 97 144 18 286 318 284 344 238 242 233 222 221 195 206 206 210 217 221 223 235 244 254 265 279 288 290 300 311 318 323 328 329 328 326 326 327 326 321 312 304 297 290 283 278 274 271 266
137 240 185 195 74 3 330 263 232 244 239 235 231 230 224 218 214 215 214 238 246 245 245 255 258 272 281 288 300 310 319 324 325 324 323 323 324 323 323 320 314 308 301 292 285 280 276 273 269
253 203 271 89 348 89 354 274 138 147 207 240 249 239 230 228 226 220 231 245 244 235 244 259 257 270 280 291 301 310 317 319 322 320 319 319 319 318 316 316 313 307 299 294 289 283 280 276 273
32 256 296 151 54 333 187 274 207 235 233 245 249 241 233 233 229 228 248 257 243 233 245 256 264 275 285 292 302 309 314 317 320 318 318 317 315 314 312 312 310 305 297 290 288 283 278 277 274
335 313 271 259 133 249 260 260 271 273 248 243 237 243 246 235 228 242 245 255 250 243 246 251 268 278 285 295 302 308 310 315 317 315 314 314 313 310 308 309 308 303 294 289 284 281 275 279 280
343 333 300 311 108 336 262 282 283 277 274 269 238 235 237 237 222 213 237 261 241 242 248 258 267 277 287 294 300 303 309 313 314 312 311 310 307 307 307 306 302 298 288 277 279 280 267 266 272
309 60 287 292 76 309 290 290 275 282 261 272 351 113 136 199 237 242 228 226 232 244 256 264 272 280 286 291 298 303 309 311 312 311 311 314 312 307 303 298 291 286 283 277 277 279 281 274 257
266 223 336 316 339 260 300 283 232 81 113 105 99 102 136 168 171 185 198 232 258 265 269 275 281 283 287 291 296 302 305 306 308 309 307 304 303 302 301 295 289 284 278 275 271 269 270 273 274
320 14 27 7 17 288 46 282 314 157 166 158 161 163 147 151 161 174 232 287 293 290 284 282 281 285 288 292 297 301 305 307 309 308 306 305 303 302 299 294 289 280 277 278 275 272 271 271 271
54 4 12 66 320 21 164 68 263 132 156 162 162 165 145 152 154 149 122 331 302 284 274 274 280 286 288 291 295 301 304 306 307 306 306 306 304 301 297 291 282 278 276 273 272 270 267 265 264
55 340 230 105 176 340 240 124 285 89 121 134 144 152 156 154 149 146 241 347 340 318 296 289 288 290 293 295 301 302 304 306 306 306 304 303 302 300 294 287 279 276 275 276 276 273 269 268 268
20 3 313 323 342 232 266 287 247 284 51 151 161 153 157 161 181 259 314 321 331 321 304 292 285 290 295 297 299 304 307 307 305 305 302 303 306 306 304 299 289 282 278 273 271 271 270 264 262
149 82 144 250 322 293 323 240 254 15 39 64 107 145 163 216 268 301 307 308 316 315 306 299 292 292 295 301 306 306 309 310 307 305 301 302 304 304 304 302 301 299 291 286 278 273 271 274 264
172 210 18 60 64 38 232 280 303 24 346 210 157 167 205 243 305 305 292 302 305 308 306 299 295 297 302 305 305 312 316 313 307 302 302 304 304 305 306 304 300 296 292 288 285 279 272 268 268
155 11 46 318 317 278 280 260 237 267 267 254 191 204 181 333 319 309 297 296 307 306 303 297 296 302 308 310 312 317 317 313 309 307 307 305 304 304 303 304 299 298 294 293 290 286 282 276 270
118 249 263 47 183 214 292 266 225 196 203 207 203 194 270 317 323 318 305 305 309 306 298 298 301 307 311 311 314 318 320 318 313 307 306 303 307 305 307 304 299 295 294 293 291 286 284 277 274
325 250 179 154 261 246 177 268 222 216 190 196 210 251 314 323 321 313 303 307 312 306 300 297 302 310 310 313 319 323 321 317 315 309 308 311 307 305 306 304 304 303 298 293 290 288 281 281 277